sat.trackr.live / text

‹ back to catalog

STARLINK-5801

NORAD 56005 · 2023-042V

PAYLOAD ACTIVE UNKNOWN

§ Identity

Operator
Country
US
Launch date
2023-03-24
Launch site
AFETR
Launch vehicle
Mass (kg)
RCS (m²)

Purposes: comms

External: N2YO · Heavens-Above · Gunter

§ Orbital elements

Epoch: 2026-05-25T00:07:24.952224Z

Period
94.27 min
Inclination
43.0015°
Eccentricity
0.0000991
Mean motion
15.27571209 rev/d
Perigee alt
482.4 km
Apogee alt
483.8 km
Semi-major
6,861.2 km
B*
3.0721e-5
RAAN
352.6456°
Arg perigee
283.0685°
Mean anomaly
77.0056°
Rev number
17,449

§ Raw data

STARLINK-58011 56005U 23042V   26145.00514991  .00000583  00000+0  30721-4 0  99962 56005  43.0015 352.6456 0000991 283.0685  77.0056 15.27571209174492

JSON: /api/v1/satellites/56005 · /tle

For live sub-satellite position, see the globe view (requires WebGL).

§ Visibility from observer

Set your observer location to see the next 7 days of passes ≥ 10°. The values pass through the URL so the page stays shareable.

No JS? Fill the form by hand. The geolocation button needs JavaScript.